星链-3218 (STARLINK-3218 )

导读 | 星芒AI

STARLINK-3218 是由 SpaceX 开发的星链(Starlink)卫星互联网项目中的一颗低轨通信卫星。它属于星链计划的第三批部署卫星,旨在为全球用户提供高速、低延迟的互联网服务。该卫星采用先进的推进和通信技术,支持Ka和Ku频段,具备自主变轨和避障能力。STARLINK-3218 于2023年发射,运行在约550公里高度的近地轨道,是实现全球宽带覆盖的重要组成部分。

基本信息
目录编号:
49725
目录名称:
STARLINK-3218
国际标识:
2021-115B
轨道中心:
EARTH
卫星名称:
星链-3218
卫星全名:
星链-3218 (STARLINK-3218 )
卫星状态:
在轨 (已飞行1432 天)
发射日期:
2021-12-02 UTC
国别 :
美国 (US)
星等 :
--
轨道信息
数据来源 国际轨道数据 AOE轨道数据
星历时间 2025-11-02T18:16:16+0800
1天前
查看轨道信息
2025-10-29T03:00:00+0800
5天前
查看轨道信息
半长轴 6917.866km 6917.853km
偏心率 0.0001463 0.0001345
轨道倾角 53.219° 53.218°
近地点辐角 95.113° 82.560°
升交点赤经 0.525° 21.339°
平近点角 265.003° 280.339°
近地点 538.718km 538.787km
远地点 540.744km 540.649km
周期 95.437分钟 95.437分钟
每日圈数 15.08845 15.088491
详细信息
固有亮度:
5
最大亮度:
2.5
卫星平台:
Starlink v1.5
覆盖范围:
全球
运营商:
太空探索技术公司
运营商所在国:
美国
制造商(研发单位):
太空探索技术公司
制造商所在国:
美国
使用方式:
暂无
卫星简介
星链(Starlink)计划是由太空探索技术公司(SpaceX)提出的一个巨型低轨卫星互联网星座项目,计划在2019年至2024年间在太空搭建由约1.2万颗卫星组成的“星链”网络,其中1584颗将部署在地球上空550千米处的近地轨道,并从2020年开始工作。该卫星仍在工作。
2D轨道图
3D轨道图
轨道高度分析图
轨道倾角分析图
轨道综合分析图
查看轨道综合分析图